Location: Flotzheim
(48.8375°N, 10.8136°E)
Time: 17:27:58
(UTC+00:00)

Cosmos 1844 - Pass Details

Date: 23 January 2021
Orbit: 821 x 869 km, 70.9° (Epoch: 28 February)

Event Time Altitude Azimuth Distance (km) Brightness Sun altitude
Rises 17:04:30 0° 188° (S) 3,375 7.2 -10.5°
Reaches altitude 10° 17:06:59 10° 182° (S) 2,452 6.4 -10.9°
Maximum altitude 17:12:22 48° 110° (ESE) 1,099 4.0 -11.8°
Drops below altitude 10° 17:17:51 10° 37° (NE) 2,500 5.7 -12.7°
Enters shadow 17:17:56 10° 37° (NE) 2,528 5.7 -12.7°
